TimeCEST,TemperatureF,Dew PointF,Humidity,Sea Level PressureIn,VisibilityMPH,Wind Direction,Wind SpeedMPH,Gust SpeedMPH,PrecipitationIn,Events,Conditions,WindDirDegrees,DateUTC
12:00 AM,48.2,48.2,100,29.80,6.2,West,13.8,-,N/A,Rain,Light Rain,280,2013-10-10 22:00:00
12:09 AM,48.2,48.2,100,29.80,6.2,West,12.7,-,N/A,,Overcast,280,2013-10-10 22:09:00
1:00 AM,48.2,48.2,100,29.83,6.2,West,8.1,-,N/A,Rain,Light Rain,260,2013-10-10 23:00:00
2:00 AM,48.2,46.4,93,29.83,6.2,West,4.6,-,N/A,,Overcast,260,2013-10-11 00:00:00
2:29 AM,48.2,46.4,93,29.86,6.2,West,4.6,-,N/A,,Overcast,260,2013-10-11 00:29:00
3:00 AM,48.2,46.4,93,29.86,6.2,WSW,2.3,-,N/A,,Overcast,240,2013-10-11 01:00:00
4:00 AM,48.2,46.4,93,29.86,6.2,Variable,1.2,-,N/A,,Overcast,0,2013-10-11 02:00:00
5:00 AM,48.2,48.2,100,29.86,6.2,ENE,3.5,-,N/A,,Overcast,60,2013-10-11 03:00:00
6:00 AM,48.2,48.2,100,29.86,6.2,NNE,3.5,-,N/A,,Overcast,30,2013-10-11 04:00:00
7:00 AM,48.2,48.2,100,29.86,6.2,Variable,2.3,-,N/A,,Overcast,0,2013-10-11 05:00:00
8:00 AM,48.2,48.2,100,29.89,5.0,Variable,2.3,-,N/A,,Overcast,0,2013-10-11 06:00:00
8:44 AM,50.0,50.0,100,29.89,5.0,Variable,2.3,-,N/A,,Overcast,0,2013-10-11 06:44:00
9:00 AM,50.0,50.0,100,29.89,6.2,Calm,Calm,-,N/A,,Overcast,0,2013-10-11 07:00:00
9:36 AM,55.4,53.6,94,29.89,5.0,ESE,11.5,21.9,N/A,,Overcast,120,2013-10-11 07:36:00
10:00 AM,55.4,53.6,94,29.89,5.0,ENE,8.1,-,N/A,,Overcast,70,2013-10-11 08:00:00
11:00 AM,57.2,55.4,94,29.89,5.0,East,9.2,-,N/A,,Overcast,80,2013-10-11 09:00:00
12:00 PM,59.0,55.4,88,29.92,6.2,ESE,8.1,-,N/A,Rain,Light Rain,110,2013-10-11 10:00:00
1:00 PM,60.8,57.2,88,29.92,6.2,ESE,13.8,24.2,N/A,,Overcast,110,2013-10-11 11:00:00
2:00 PM,64.4,55.4,73,29.89,6.2,SE,20.7,-,N/A,,Mostly Cloudy,130,2013-10-11 12:00:00
3:00 PM,64.4,55.4,73,29.92,6.2,SE,16.1,-,N/A,,Mostly Cloudy,130,2013-10-11 13:00:00
4:00 PM,60.8,57.2,88,29.92,5.0,SE,13.8,-,N/A,,Overcast,130,2013-10-11 14:00:00
5:00 PM,59.0,57.2,94,29.95,5.0,South,8.1,-,N/A,Rain,Light Rain,180,2013-10-11 15:00:00
6:00 PM,50.0,50.0,100,29.98,5.0,SW,9.2,-,N/A,Rain,Light Rain,220,2013-10-11 16:00:00
7:00 PM,50.0,50.0,100,29.98,6.2,East,6.9,-,N/A,Rain,Light Rain,90,2013-10-11 17:00:00
8:00 PM,50.0,50.0,100,30.01,6.2,WNW,9.2,-,N/A,Rain,Light Rain,290,2013-10-11 18:00:00
9:00 PM,50.0,50.0,100,30.06,6.2,WNW,5.8,-,N/A,,Overcast,290,2013-10-11 19:00:00
10:00 PM,50.0,48.2,94,30.06,6.2,Variable,2.3,-,N/A,,Overcast,0,2013-10-11 20:00:00
11:00 PM,48.2,48.2,100,30.09,-9999.0,Variable,1.2,-,N/A,,Clear,0,2013-10-11 21:00:00